Погода в Шиморском

Россия / Нижегородская область     55°19′30″N   42°01′46″E
темп.,
°C
ветер,
м/с
пор.,
м/с
влажн.,
%
обл.,
%
осадки,
мм/ч
давл.,
гПа
погр.,
м
17 мая, пн
пн1700:00+15вюв118348 0.0 101411
03:00+14св1186100 0.0 101511
06:00+15всв2588100 0.1 1015129
09:00+22в46695 0.3 1015510
12:00+27юв35535 0.0 10151215
15:00+28ююв464855 0.0 10141596
18:00+24ююв3761100 0.0 1014149
21:00+18юв397276 0.0 1014127
18 мая, вт
вт1800:00+16юв377692 0.0 101497
03:00+16вюв41167100 0.0 1014168
06:00+16юв31073100 0.0 1014195
09:00+23юв4105670 0.0 1014421
12:00+27юв58425 0.0 10131050
15:00+27юв58447 0.0 10131090
18:00+24юв5115513 0.0 1012414
21:00+19вюв4127418 0.0 1012219
19 мая, ср
ср1900:00+19вюв514665 0.0 1012286
03:00+18вюв514590 0.0 1011261
06:00+18юв413685 0.0 1012368
09:00+24юв614525 0.0 1011597
12:00+28юв611435 0.0 10111389
15:00+28юв610440 0.0 10111908
18:00+25вюв512542 0.0 1011531
21:00+20в414728 0.0 1011303
20 мая, чт
чт2000:00+20вюв616695 0.0 1010502
03:00+18вюв414665 0.0 1010363
06:00+19юв6157212 0.0 1010653
09:00+22юв7126481 0.0 10101009
12:00+24ююв8125665 0.0 10101843
15:00+22ююв71260100 0.3 10121703
18:00+19ю61168100 0.2 10131100
21:00+16ю39837 0.2 1014312
21 мая, пт
пт2100:00+13ююв38950 0.0 1014208
03:00+13ююв49977 0.0 1015245
06:00+14ююз4992100 0.0 1016387
09:00+17юз5769100 0.0 1017844
12:00+20юз5756100 0.0 10181456
15:00+20юз576419 0.3 10191245
18:00+19юз467235 0.2 1019739
21:00+15ююз3388100 0.3 102039